Location: Tel Aviv
(32.0670°N, 34.7670°E)
Time: 03:08:28
(UTC+03:00)

Tiros 1 - Pass Details

Date: 22 January 2022
Orbit: 629 x 663 km, 48.4° (Epoch: 26 May)

Event Time Altitude Azimuth Distance (km) Brightness Sun altitude
Rises 04:35:39 0° 318° (NW) 2,972 - -26.2°
Reaches altitude 10° 04:38:27 10° 333° (NNW) 2,052 - -25.6°
Exits shadow 04:41:13 21° 8° (N) 1,447 8.9 -25.0°
Maximum altitude 04:42:10 22° 25° (NNE) 1,392 9.0 -24.8°
Drops below altitude 10° 04:45:51 10° 77° (ENE) 2,030 10.6 -24.0°
Sets 04:48:36 0° 93° (E) 2,931 12.0 -23.5°
